{"data":{"norad_id":36499,"epoch":"2026-09-20T03:51:32.541984Z","epoch_age_seconds":47615,"freshness":"FRESH","line1":"1 36499U 10010A   26263.16079331 -.00000004  00000+0  00000+0 0  9995","line2":"2 36499   0.0156 221.6451 0002014 299.0249 137.3915  1.00271163 47504","mean_motion":1.00271163,"eccentricity":0.0002014,"inclination_deg":0.0156,"raan_deg":221.6451,"arg_perigee_deg":299.0249,"mean_anomaly_deg":137.3915,"bstar":0,"rev_number":4750,"period_min":1436.1058123959,"perigee_km":35778.277319136,"apogee_km":35795.261343406,"semimajor_km":42164.906331271,"source":"CELESTRAK","updated_at":"2026-09-20T09:00:35.162540Z"}}